| time (UTC) | temp F | wind direction | speed knots | gust knots | rain 1hr in | rain 24hr in | rain mn in | humidity % | barometer mb |
| 20260509210904 | 61 | 0 | 0.9 | 4.3 | 0.00 | 0.00 | 0.00 | 15 | 1019.0 |
| 20260509210404 | 60 | 234 | 0.0 | 0.0 | 0.00 | 0.00 | 0.00 | 16 | 1019.0 |
| 20260509205903 | 60 | 234 | 0.0 | 4.3 | 0.00 | 0.00 | 0.00 | 16 | 1019.0 |
| 20260509205404 | 60 | 236 | 0.0 | 0.0 | 0.00 | 0.00 | 0.00 | 16 | 1019.0 |
| 20260509204904 | 61 | 238 | 0.0 | 2.6 | 0.00 | 0.00 | 0.00 | 15 | 1019.0 |
| 20260509204404 | 61 | 6 | 0.9 | 2.6 | 0.00 | 0.00 | 0.00 | 14 | 1019.1 |
| 20260509203904 | 62 | 231 | 1.7 | 5.2 | 0.00 | 0.00 | 0.00 | 16 | 1019.0 |
| 20260509202904 | 62 | 225 | 7.8 | 13.0 | 0.00 | 0.00 | 0.00 | 18 | 1018.9 |
| 20260509202404 | 61 | 232 | 4.3 | 10.4 | 0.00 | 0.00 | 0.00 | 17 | 1018.9 |
| 20260509201904 | 61 | 246 | 4.3 | 10.4 | 0.00 | 0.00 | 0.00 | 18 | 1018.9 |
| 20260509201403 | 62 | 240 | 2.6 | 7.8 | 0.00 | 0.00 | 0.00 | 15 | 1019.0 |
| 20260509200904 | 62 | 9 | 0.0 | 7.0 | 0.00 | 0.00 | 0.00 | 17 | 1018.9 |
| 20260509200404 | 61 | 226 | 0.9 | 5.2 | 0.00 | 0.00 | 0.00 | 17 | 1019.0 |
| 20260509195904 | 60 | 228 | 4.3 | 11.3 | 0.00 | 0.00 | 0.00 | 21 | 1019.0 |
| 20260509195404 | 60 | 230 | 0.9 | 4.3 | 0.00 | 0.00 | 0.00 | 16 | 1019.0 |
| 20260509194904 | 60 | 347 | 1.7 | 10.4 | 0.00 | 0.00 | 0.00 | 16 | 1019.0 |
| 20260509194405 | 61 | 276 | 1.7 | 6.1 | 0.00 | 0.00 | 0.00 | 16 | 1018.9 |
| 20260509193904 | 61 | 210 | 2.6 | 10.4 | 0.00 | 0.00 | 0.00 | 16 | 1018.9 |
| 20260509193404 | 61 | 232 | 1.7 | 10.4 | 0.00 | 0.00 | 0.00 | 15 | 1018.9 |
| 20260509192903 | 61 | 230 | 4.3 | 10.4 | 0.00 | 0.00 | 0.00 | 17 | 1019.0 |
| 20260509192404 | 62 | 16 | 2.6 | 8.7 | 0.00 | 0.00 | 0.00 | 15 | 1018.8 |
| 20260509191904 | 62 | 176 | 0.9 | 7.0 | 0.00 | 0.00 | 0.00 | 19 | 1018.9 |
| 20260509190904 | 61 | 344 | 0.9 | 7.8 | 0.00 | 0.00 | 0.00 | 16 | 1019.0 |
| 20260509190411 | 61 | 40 | 0.9 | 5.2 | 0.00 | 0.00 | 0.00 | 16 | 1018.8 |
| 20260509185905 | 61 | 267 | 0.9 | 8.7 | 0.00 | 0.00 | 0.00 | 19 | 1018.9 |
| 20260509184904 | 60 | 37 | 0.9 | 7.0 | 0.00 | 0.00 | 0.00 | 16 | 1019.0 |
| 20260509184404 | 60 | 35 | 1.7 | 6.1 | 0.00 | 0.00 | 0.00 | 17 | 1019.0 |
| 20260509183904 | 59 | 268 | 0.0 | 5.2 | 0.00 | 0.00 | 0.00 | 18 | 1019.0 |
| 20260509183404 | 59 | 29 | 1.7 | 4.3 | 0.00 | 0.00 | 0.00 | 18 | 1019.1 |
| 20260509182904 | 59 | 305 | 0.0 | 5.2 | 0.00 | 0.00 | 0.00 | 19 | 1019.1 |
| 20260509182403 | 58 | 257 | 0.0 | 4.3 | 0.00 | 0.00 | 0.00 | 19 | 1019.1 |
| 20260509181919 | 57 | 46 | 1.7 | 5.2 | 0.00 | 0.00 | 0.00 | 19 | 1019.1 |
| 20260509181404 | 57 | 60 | 0.9 | 5.2 | 0.00 | 0.00 | 0.00 | 19 | 1019.2 |
| 20260509180904 | 57 | 44 | 2.6 | 15.6 | 0.00 | 0.00 | 0.00 | 19 | 1019.1 |
| 20260509180404 | 57 | 43 | 6.1 | 13.0 | 0.00 | 0.00 | 0.00 | 19 | 1019.1 |
| 20260509175904 | 57 | 34 | 2.6 | 7.0 | 0.00 | 0.00 | 0.00 | 20 | 1019.0 |
| 20260509175404 | 57 | 38 | 4.3 | 7.8 | 0.00 | 0.00 | 0.00 | 19 | 1018.9 |
| 20260509174904 | 58 | 34 | 2.6 | 10.4 | 0.00 | 0.00 | 0.00 | 19 | 1018.9 |
| 20260509174404 | 57 | 29 | 2.6 | 7.8 | 0.00 | 0.00 | 0.00 | 19 | 1018.8 |
| 20260509173404 | 58 | 22 | 5.2 | 11.3 | 0.00 | 0.00 | 0.00 | 20 | 1018.7 |
| 20260509172904 | 58 | 43 | 1.7 | 12.2 | 0.00 | 0.00 | 0.00 | 20 | 1018.7 |
| 20260509172411 | 58 | 40 | 3.5 | 7.8 | 0.00 | 0.00 | 0.00 | 20 | 1018.7 |
| 20260509171904 | 57 | 41 | 5.2 | 10.4 | 0.00 | 0.00 | 0.00 | 20 | 1018.8 |
| 20260509171404 | 57 | 52 | 2.6 | 13.9 | 0.00 | 0.00 | 0.00 | 20 | 1018.8 |
| 20260509170919 | 58 | 48 | 6.1 | 12.2 | 0.00 | 0.00 | 0.00 | 18 | 1018.9 |
| 20260509170404 | 58 | 39 | 2.6 | 13.0 | 0.00 | 0.00 | 0.00 | 19 | 1018.8 |
| 20260509165904 | 58 | 31 | 2.6 | 11.3 | 0.00 | 0.00 | 0.00 | 18 | 1018.8 |
| 20260509165404 | 58 | 3 | 2.6 | 7.8 | 0.00 | 0.00 | 0.00 | 19 | 1018.9 |
| 20260509164904 | 58 | 355 | 4.3 | 10.4 | 0.00 | 0.00 | 0.00 | 18 | 1018.8 |
| 20260509164404 | 58 | 9 | 0.9 | 7.8 | 0.00 | 0.00 | 0.00 | 18 | 1018.8 |
| 20260509163903 | 58 | 284 | 5.2 | 7.8 | 0.00 | 0.00 | 0.00 | 18 | 1018.8 |
| 20260509162903 | 58 | 99 | 1.7 | 7.0 | 0.00 | 0.00 | 0.00 | 18 | 1018.7 |
| 20260509162405 | 58 | 35 | 2.6 | 8.7 | 0.00 | 0.00 | 0.00 | 19 | 1018.8 |
| 20260509161905 | 58 | 35 | 1.7 | 8.7 | 0.00 | 0.00 | 0.00 | 18 | 1018.8 |
| 20260509161404 | 57 | 5 | 0.0 | 7.0 | 0.00 | 0.00 | 0.00 | 22 | 1018.8 |
| 20260509160903 | 57 | 222 | 4.3 | 11.3 | 0.00 | 0.00 | 0.00 | 21 | 1018.8 |
| 20260509155403 | 57 | 236 | 4.3 | 10.4 | 0.00 | 0.00 | 0.00 | 22 | 1018.6 |
| 20260509154904 | 56 | 276 | 3.5 | 10.4 | 0.00 | 0.00 | 0.00 | 23 | 1018.5 |
| 20260509154404 | 56 | 257 | 2.6 | 7.8 | 0.00 | 0.00 | 0.00 | 23 | 1018.5 |